Year,Month,Day,Hour,Minute,Value (Times are PST for temperature in C)
2018,05,25,00,00,14.50
2018,05,25,00,01,14.40
2018,05,25,00,02,14.40
2018,05,25,00,03,14.40
2018,05,25,00,04,14.40
2018,05,25,00,05,14.30
2018,05,25,00,06,14.30
2018,05,25,00,07,14.30
2018,05,25,00,08,14.20
2018,05,25,00,09,14.20
2018,05,25,00,10,14.20
2018,05,25,00,11,14.20
2018,05,25,00,12,14.10
2018,05,25,00,13,14.10
2018,05,25,00,14,14.10
2018,05,25,00,15,14.10
2018,05,25,00,16,14.10
2018,05,25,00,17,14.00
2018,05,25,00,18,14.00
2018,05,25,00,19,14.00
2018,05,25,00,20,13.90
2018,05,25,00,21,13.90
2018,05,25,00,22,13.90
2018,05,25,00,23,13.90
2018,05,25,00,24,13.80
2018,05,25,00,25,13.80
2018,05,25,00,26,13.80
2018,05,25,00,27,13.80
2018,05,25,00,28,13.80
2018,05,25,00,29,13.80
2018,05,25,00,30,13.70
2018,05,25,00,31,13.70
2018,05,25,00,32,13.70
2018,05,25,00,33,13.70
2018,05,25,00,34,13.70
2018,05,25,00,35,13.60
2018,05,25,00,36,13.60
2018,05,25,00,37,13.60
2018,05,25,00,38,13.60
2018,05,25,00,39,13.60
2018,05,25,00,40,13.60
2018,05,25,00,41,13.60
2018,05,25,00,42,13.50
2018,05,25,00,43,13.50
2018,05,25,00,44,13.50
2018,05,25,00,45,13.50
2018,05,25,00,46,13.50
2018,05,25,00,47,13.50
2018,05,25,00,48,13.50
2018,05,25,00,49,13.40
2018,05,25,00,50,13.40
2018,05,25,00,51,13.40
2018,05,25,00,52,13.40
2018,05,25,00,53,13.40
2018,05,25,00,54,13.40
2018,05,25,00,55,13.40
2018,05,25,00,56,13.40
2018,05,25,00,57,13.40
2018,05,25,00,58,13.40
2018,05,25,00,59,13.40
2018,05,25,01,00,13.40
2018,05,25,01,01,13.40
2018,05,25,01,02,13.40
2018,05,25,01,03,13.40
2018,05,25,01,04,13.40
2018,05,25,01,05,13.40
2018,05,25,01,06,13.40
2018,05,25,01,07,13.40
2018,05,25,01,08,13.40
2018,05,25,01,09,13.40
2018,05,25,01,10,13.40
2018,05,25,01,11,13.40
2018,05,25,01,12,13.40
2018,05,25,01,13,13.40
2018,05,25,01,14,13.40
2018,05,25,01,15,13.50
2018,05,25,01,16,13.50
2018,05,25,01,17,13.50
2018,05,25,01,18,13.40
2018,05,25,01,19,13.40
2018,05,25,01,20,13.50
2018,05,25,01,21,13.50
2018,05,25,01,22,13.50
2018,05,25,01,23,13.50
2018,05,25,01,24,13.50
2018,05,25,01,25,13.60
2018,05,25,01,26,13.60
2018,05,25,01,27,13.60
2018,05,25,01,28,13.70
2018,05,25,01,29,13.70
2018,05,25,01,30,13.70
2018,05,25,01,31,13.70
2018,05,25,01,32,13.70
2018,05,25,01,33,13.80
2018,05,25,01,34,13.80
2018,05,25,01,35,13.80
2018,05,25,01,36,13.80
2018,05,25,01,37,13.80
2018,05,25,01,38,13.80
2018,05,25,01,39,13.80
2018,05,25,01,40,13.80
2018,05,25,01,41,13.90
2018,05,25,01,42,13.90
2018,05,25,01,43,13.90
2018,05,25,01,44,14.00
2018,05,25,01,45,14.00
2018,05,25,01,46,14.10
2018,05,25,01,47,14.20
2018,05,25,01,48,14.40
2018,05,25,01,49,14.40
2018,05,25,01,50,14.50
2018,05,25,01,51,14.50
2018,05,25,01,52,14.60
2018,05,25,01,53,14.60
2018,05,25,01,54,14.70
2018,05,25,01,55,14.70
2018,05,25,01,56,14.70
2018,05,25,01,57,14.70
2018,05,25,01,58,14.70
2018,05,25,01,59,14.70
2018,05,25,02,00,14.70
2018,05,25,02,01,14.80
2018,05,25,02,02,14.80
2018,05,25,02,03,14.80
2018,05,25,02,04,14.80
2018,05,25,02,05,14.90
2018,05,25,02,06,14.90
2018,05,25,02,07,14.90
2018,05,25,02,08,14.90
2018,05,25,02,09,14.90
2018,05,25,02,10,14.90
2018,05,25,02,11,14.90
2018,05,25,02,12,14.90
2018,05,25,02,13,14.80
2018,05,25,02,14,14.80
2018,05,25,02,15,14.80
2018,05,25,02,16,14.80
2018,05,25,02,17,14.80
2018,05,25,02,18,14.80
2018,05,25,02,19,14.80
2018,05,25,02,20,14.80
2018,05,25,02,21,14.80
2018,05,25,02,22,14.80
2018,05,25,02,23,14.80
2018,05,25,02,24,14.80
2018,05,25,02,25,14.80
2018,05,25,02,26,14.80
2018,05,25,02,27,14.70
2018,05,25,02,28,14.70
2018,05,25,02,29,14.70
2018,05,25,02,30,14.60
2018,05,25,02,31,14.60
2018,05,25,02,32,14.50
2018,05,25,02,33,14.50
2018,05,25,02,34,14.50
2018,05,25,02,35,14.40
2018,05,25,02,36,14.40
2018,05,25,02,37,14.40
2018,05,25,02,38,14.40
2018,05,25,02,39,14.40
2018,05,25,02,40,14.30
2018,05,25,02,41,14.30
2018,05,25,02,42,14.20
2018,05,25,02,43,14.20
2018,05,25,02,44,14.10
2018,05,25,02,45,14.00
2018,05,25,02,46,13.90
2018,05,25,02,47,13.90
2018,05,25,02,48,13.90
2018,05,25,02,49,13.80
2018,05,25,02,50,13.70
2018,05,25,02,51,13.70
2018,05,25,02,52,13.60
2018,05,25,02,53,13.60
2018,05,25,02,54,13.50
2018,05,25,02,55,13.50
2018,05,25,02,56,13.40
2018,05,25,02,57,13.40
2018,05,25,02,58,13.30
2018,05,25,02,59,13.30
2018,05,25,03,00,13.20
2018,05,25,03,01,13.20
2018,05,25,03,02,13.20
2018,05,25,03,03,13.20
2018,05,25,03,04,13.10
2018,05,25,03,05,13.10
2018,05,25,03,06,13.10
2018,05,25,03,07,13.10
2018,05,25,03,08,13.00
2018,05,25,03,09,13.00
2018,05,25,03,10,13.00
2018,05,25,03,11,12.90
2018,05,25,03,12,12.90
2018,05,25,03,13,12.90
2018,05,25,03,14,12.90
2018,05,25,03,15,12.80
2018,05,25,03,16,12.80
2018,05,25,03,17,12.80
2018,05,25,03,18,12.80
2018,05,25,03,19,12.80
2018,05,25,03,20,12.70
2018,05,25,03,21,12.70
2018,05,25,03,22,12.70
2018,05,25,03,23,12.70
2018,05,25,03,24,12.70
2018,05,25,03,25,12.60
2018,05,25,03,26,12.60
2018,05,25,03,27,12.60
2018,05,25,03,28,12.60
2018,05,25,03,29,12.60
2018,05,25,03,30,12.60
2018,05,25,03,31,12.60
2018,05,25,03,32,12.60
2018,05,25,03,33,12.60
2018,05,25,03,34,12.60
2018,05,25,03,35,12.60
2018,05,25,03,36,12.60
2018,05,25,03,37,12.60
2018,05,25,03,38,12.60
2018,05,25,03,39,12.60
2018,05,25,03,40,12.60
2018,05,25,03,41,12.60
2018,05,25,03,42,12.60
2018,05,25,03,43,12.50
2018,05,25,03,44,12.50
2018,05,25,03,45,12.50
2018,05,25,03,46,12.50
2018,05,25,03,47,12.50
2018,05,25,03,48,12.50
2018,05,25,03,49,12.50
2018,05,25,03,50,12.50
2018,05,25,03,51,12.50
2018,05,25,03,52,12.50
2018,05,25,03,53,12.40
2018,05,25,03,54,12.40
2018,05,25,03,55,12.50
2018,05,25,03,56,12.50
2018,05,25,03,57,12.50
2018,05,25,03,58,12.50
2018,05,25,03,59,12.50
2018,05,25,04,00,12.50
2018,05,25,04,01,12.50
2018,05,25,04,02,12.50
2018,05,25,04,03,12.50
2018,05,25,04,04,12.50
2018,05,25,04,05,12.50
2018,05,25,04,06,12.40
2018,05,25,04,07,12.40
2018,05,25,04,08,12.40
2018,05,25,04,09,12.40
2018,05,25,04,10,12.40
2018,05,25,04,11,12.30
2018,05,25,04,12,12.30
2018,05,25,04,13,12.30
2018,05,25,04,14,12.30
2018,05,25,04,15,12.30
2018,05,25,04,16,12.30
2018,05,25,04,17,12.30
2018,05,25,04,18,12.30
2018,05,25,04,19,12.20
2018,05,25,04,20,12.20
2018,05,25,04,21,12.20
2018,05,25,04,22,12.20
2018,05,25,04,23,12.20
2018,05,25,04,24,12.20
2018,05,25,04,25,12.20
2018,05,25,04,26,12.20
2018,05,25,04,27,12.20
2018,05,25,04,28,12.20
2018,05,25,04,29,12.20
2018,05,25,04,30,12.20
2018,05,25,04,31,12.20
2018,05,25,04,32,12.20
2018,05,25,04,33,12.20
2018,05,25,04,34,12.20
2018,05,25,04,35,12.10
2018,05,25,04,36,12.10
2018,05,25,04,37,12.10
2018,05,25,04,38,12.00
2018,05,25,04,39,12.00
2018,05,25,04,40,12.00
2018,05,25,04,41,11.90
2018,05,25,04,42,11.90
2018,05,25,04,43,11.90
2018,05,25,04,44,11.80
2018,05,25,04,45,11.80
2018,05,25,04,46,11.80
2018,05,25,04,47,11.80
2018,05,25,04,48,11.70
2018,05,25,04,49,11.70
2018,05,25,04,50,11.70
2018,05,25,04,51,11.60
2018,05,25,04,52,11.60
2018,05,25,04,53,11.60
2018,05,25,04,54,11.50
2018,05,25,04,55,11.50
2018,05,25,04,56,11.50
2018,05,25,04,57,11.40
2018,05,25,04,58,11.40
2018,05,25,04,59,11.40
2018,05,25,05,00,11.30
2018,05,25,05,01,11.30
2018,05,25,05,02,11.30
2018,05,25,05,03,11.30
2018,05,25,05,04,11.30
2018,05,25,05,05,11.30
2018,05,25,05,06,11.20
2018,05,25,05,07,11.20
2018,05,25,05,08,11.20
2018,05,25,05,09,11.20
2018,05,25,05,10,11.20
2018,05,25,05,11,11.20
2018,05,25,05,12,11.10
2018,05,25,05,13,11.10
2018,05,25,05,14,11.10
2018,05,25,05,15,11.10
2018,05,25,05,16,11.00
2018,05,25,05,17,11.00
2018,05,25,05,18,10.90
2018,05,25,05,19,10.90
2018,05,25,05,20,10.90
2018,05,25,05,21,10.90
2018,05,25,05,22,10.80
2018,05,25,05,23,10.80
2018,05,25,05,24,10.80
2018,05,25,05,25,10.80
2018,05,25,05,26,10.80
2018,05,25,05,27,10.70
2018,05,25,05,28,10.70
2018,05,25,05,29,10.70
2018,05,25,05,30,10.70
2018,05,25,05,31,10.70
2018,05,25,05,32,10.70
2018,05,25,05,33,10.70
2018,05,25,05,34,10.70
2018,05,25,05,35,10.70
2018,05,25,05,36,10.70
2018,05,25,05,37,10.60
2018,05,25,05,38,10.70
2018,05,25,05,39,10.70
2018,05,25,05,40,10.70
2018,05,25,05,41,10.70
2018,05,25,05,42,10.60
2018,05,25,05,43,10.60
2018,05,25,05,44,10.60
2018,05,25,05,45,10.60
2018,05,25,05,46,10.60
2018,05,25,05,47,10.60
2018,05,25,05,48,10.60
2018,05,25,05,49,10.60
2018,05,25,05,50,10.60
2018,05,25,05,51,10.60
2018,05,25,05,52,10.60
2018,05,25,05,53,10.60
2018,05,25,05,54,10.60
2018,05,25,05,55,10.60
2018,05,25,05,56,10.60
2018,05,25,05,57,10.60
2018,05,25,05,58,10.60
2018,05,25,05,59,10.60
2018,05,25,06,00,10.60
2018,05,25,06,01,10.60
2018,05,25,06,02,10.60
2018,05,25,06,03,10.50
2018,05,25,06,04,10.50
2018,05,25,06,05,10.50
2018,05,25,06,06,10.50
2018,05,25,06,07,10.50
2018,05,25,06,08,10.50
2018,05,25,06,09,10.50
2018,05,25,06,10,10.50
2018,05,25,06,11,10.50
2018,05,25,06,12,10.50
2018,05,25,06,13,10.50
2018,05,25,06,14,10.50
2018,05,25,06,15,10.50
2018,05,25,06,16,10.50
2018,05,25,06,17,10.50
2018,05,25,06,18,10.50
2018,05,25,06,19,10.50
2018,05,25,06,20,10.50
2018,05,25,06,21,10.50
2018,05,25,06,22,10.50
2018,05,25,06,23,10.50
2018,05,25,06,24,10.50
2018,05,25,06,25,10.50
2018,05,25,06,26,10.50
2018,05,25,06,27,10.50
2018,05,25,06,28,10.50
2018,05,25,06,29,10.60
2018,05,25,06,30,10.60
2018,05,25,06,31,10.60
2018,05,25,06,32,10.60
2018,05,25,06,33,10.60
2018,05,25,06,34,10.60
2018,05,25,06,35,10.60
2018,05,25,06,36,10.70
2018,05,25,06,37,10.70
2018,05,25,06,38,10.70
2018,05,25,06,39,10.70
2018,05,25,06,40,10.70
2018,05,25,06,41,10.70
2018,05,25,06,42,10.80
2018,05,25,06,43,10.80
2018,05,25,06,44,10.80
2018,05,25,06,45,10.80
2018,05,25,06,46,10.80
2018,05,25,06,47,10.90
2018,05,25,06,48,10.90
2018,05,25,06,49,10.90
2018,05,25,06,50,11.00
2018,05,25,06,51,11.00
2018,05,25,06,52,11.10
2018,05,25,06,53,11.10
2018,05,25,06,54,11.10
2018,05,25,06,55,11.10
2018,05,25,06,56,11.20
2018,05,25,06,57,11.20
2018,05,25,06,58,11.20
2018,05,25,06,59,11.30
2018,05,25,07,00,11.30
2018,05,25,07,01,11.30
2018,05,25,07,02,11.30
2018,05,25,07,03,11.40
2018,05,25,07,04,11.40
2018,05,25,07,05,11.50
2018,05,25,07,06,11.50
2018,05,25,07,07,11.60
2018,05,25,07,08,11.70
2018,05,25,07,09,11.70
2018,05,25,07,10,11.80
2018,05,25,07,11,11.90
2018,05,25,07,12,12.00
2018,05,25,07,13,12.10
2018,05,25,07,14,12.20
2018,05,25,07,15,12.30
2018,05,25,07,16,12.40
2018,05,25,07,17,12.50
2018,05,25,07,18,12.60
2018,05,25,07,19,12.70
2018,05,25,07,20,12.80
2018,05,25,07,21,12.90
2018,05,25,07,22,13.00
2018,05,25,07,23,13.20
2018,05,25,07,24,13.30
2018,05,25,07,25,13.50
2018,05,25,07,26,13.60
2018,05,25,07,27,13.70
2018,05,25,07,28,13.80
2018,05,25,07,29,13.90
2018,05,25,07,30,14.00
2018,05,25,07,31,14.10
2018,05,25,07,32,14.20
2018,05,25,07,33,14.20
2018,05,25,07,34,14.30
2018,05,25,07,35,14.40
2018,05,25,07,36,14.40
2018,05,25,07,37,14.50
2018,05,25,07,38,14.60
2018,05,25,07,39,14.60
2018,05,25,07,40,14.70
2018,05,25,07,41,14.80
2018,05,25,07,42,14.90
2018,05,25,07,43,15.00
2018,05,25,07,44,15.00
2018,05,25,07,45,15.10
2018,05,25,07,46,15.20
2018,05,25,07,47,15.30
2018,05,25,07,48,15.40
2018,05,25,07,49,15.40
2018,05,25,07,50,15.40
2018,05,25,07,51,15.50
2018,05,25,07,52,15.50
2018,05,25,07,53,15.60
2018,05,25,07,54,15.70
2018,05,25,07,55,15.70
2018,05,25,07,56,15.70
2018,05,25,07,57,15.70
2018,05,25,07,58,15.70
2018,05,25,07,59,15.60
2018,05,25,08,00,15.50
2018,05,25,08,01,15.50
2018,05,25,08,02,15.40
2018,05,25,08,03,15.30
2018,05,25,08,04,15.30
2018,05,25,08,05,15.30
2018,05,25,08,06,15.30
2018,05,25,08,07,15.30
2018,05,25,08,08,15.30
2018,05,25,08,09,15.30
2018,05,25,08,10,15.30
2018,05,25,08,11,15.20
2018,05,25,08,12,15.20
2018,05,25,08,13,15.20
2018,05,25,08,14,15.20
2018,05,25,08,15,15.20
2018,05,25,08,16,15.20
2018,05,25,08,17,15.20
2018,05,25,08,18,15.20
2018,05,25,08,19,15.20
2018,05,25,08,20,15.30
2018,05,25,08,21,15.30
2018,05,25,08,22,15.30
2018,05,25,08,23,15.40
2018,05,25,08,24,15.40
2018,05,25,08,25,15.30
2018,05,25,08,26,15.30
2018,05,25,08,27,15.30
2018,05,25,08,28,15.30
2018,05,25,08,29,15.30
2018,05,25,08,30,15.40
2018,05,25,08,31,15.40
2018,05,25,08,32,15.40
2018,05,25,08,33,15.30
2018,05,25,08,34,15.30
2018,05,25,08,35,15.30
2018,05,25,08,36,15.30
2018,05,25,08,37,15.30
2018,05,25,08,38,15.40
2018,05,25,08,39,15.40
2018,05,25,08,40,15.50
2018,05,25,08,41,15.50
2018,05,25,08,42,15.60
2018,05,25,08,43,15.80
2018,05,25,08,44,15.80
2018,05,25,08,45,15.70
2018,05,25,08,46,15.60
2018,05,25,08,47,15.50
2018,05,25,08,48,15.50
2018,05,25,08,49,15.50
2018,05,25,08,50,15.60
2018,05,25,08,51,15.60
2018,05,25,08,52,15.60
2018,05,25,08,53,15.60
2018,05,25,08,54,15.70
2018,05,25,08,55,15.60
2018,05,25,08,56,15.60
2018,05,25,08,57,15.50
2018,05,25,08,58,15.50
2018,05,25,08,59,15.50
2018,05,25,09,00,15.50
2018,05,25,09,01,15.60
2018,05,25,09,02,15.70
2018,05,25,09,03,15.80
2018,05,25,09,04,15.80
2018,05,25,09,05,15.80
2018,05,25,09,06,15.80
2018,05,25,09,07,15.80
2018,05,25,09,08,15.80
2018,05,25,09,09,15.80
2018,05,25,09,10,15.70
2018,05,25,09,11,15.70
2018,05,25,09,12,15.70
2018,05,25,09,13,15.70
2018,05,25,09,14,15.70
2018,05,25,09,15,15.70
2018,05,25,09,16,15.70
2018,05,25,09,17,15.80
2018,05,25,09,18,15.90
2018,05,25,09,19,15.90
2018,05,25,09,20,16.00
2018,05,25,09,21,16.00
2018,05,25,09,22,15.90
2018,05,25,09,23,15.90
2018,05,25,09,24,15.90
2018,05,25,09,25,15.90
2018,05,25,09,26,15.90
2018,05,25,09,27,16.00
2018,05,25,09,28,16.10
2018,05,25,09,29,16.20
2018,05,25,09,30,16.20
2018,05,25,09,31,16.30
2018,05,25,09,32,16.30
2018,05,25,09,33,16.30
2018,05,25,09,34,16.20
2018,05,25,09,35,16.20
2018,05,25,09,36,16.20
2018,05,25,09,37,16.30
2018,05,25,09,38,16.40
2018,05,25,09,39,16.50
2018,05,25,09,40,16.60
2018,05,25,09,41,16.50
2018,05,25,09,42,16.40
2018,05,25,09,43,16.30
2018,05,25,09,44,16.40
2018,05,25,09,45,16.40
2018,05,25,09,46,16.50
2018,05,25,09,47,16.60
2018,05,25,09,48,16.60
2018,05,25,09,49,16.70
2018,05,25,09,50,16.70
2018,05,25,09,51,16.70
2018,05,25,09,52,16.70
2018,05,25,09,53,16.70
2018,05,25,09,54,16.80
2018,05,25,09,55,16.90
2018,05,25,09,56,16.90
2018,05,25,09,57,16.90
2018,05,25,09,58,16.80
2018,05,25,09,59,16.70
2018,05,25,10,00,16.60
2018,05,25,10,01,16.50
2018,05,25,10,02,16.40
2018,05,25,10,03,16.30
2018,05,25,10,04,16.20
2018,05,25,10,05,16.20
2018,05,25,10,06,16.10
2018,05,25,10,07,16.10
2018,05,25,10,08,16.10
2018,05,25,10,09,16.10
2018,05,25,10,10,16.10
2018,05,25,10,11,16.10
2018,05,25,10,12,16.20
2018,05,25,10,13,16.30
2018,05,25,10,14,16.30
2018,05,25,10,15,16.30
2018,05,25,10,16,16.40
2018,05,25,10,17,16.50
2018,05,25,10,18,16.60
2018,05,25,10,19,16.60
2018,05,25,10,20,16.60
2018,05,25,10,21,16.60
2018,05,25,10,22,16.60
2018,05,25,10,23,16.50
2018,05,25,10,24,16.50
2018,05,25,10,25,16.50
2018,05,25,10,26,16.50
2018,05,25,10,27,16.50
2018,05,25,10,28,16.60
2018,05,25,10,29,16.60
2018,05,25,10,30,16.70
2018,05,25,10,31,16.70
2018,05,25,10,32,16.70
2018,05,25,10,33,16.80
2018,05,25,10,34,16.80
2018,05,25,10,35,16.80
2018,05,25,10,36,16.80
2018,05,25,10,37,16.70
2018,05,25,10,38,16.70
2018,05,25,10,39,16.70
2018,05,25,10,40,16.70
2018,05,25,10,41,16.70
2018,05,25,10,42,16.60
2018,05,25,10,43,16.60
2018,05,25,10,44,16.50
2018,05,25,10,45,16.50
2018,05,25,10,46,16.50
2018,05,25,10,47,16.50
2018,05,25,10,48,16.60
2018,05,25,10,49,16.60
2018,05,25,10,50,16.60
2018,05,25,10,51,16.60
2018,05,25,10,52,16.60
2018,05,25,10,53,16.60
2018,05,25,10,54,16.70
2018,05,25,10,55,16.70
2018,05,25,10,56,16.80
2018,05,25,10,57,16.90
2018,05,25,10,58,17.00
2018,05,25,10,59,17.10
2018,05,25,11,00,17.20
2018,05,25,11,01,17.20
2018,05,25,11,02,17.20
2018,05,25,11,03,17.20
2018,05,25,11,04,17.20
2018,05,25,11,05,17.10
2018,05,25,11,06,17.10
2018,05,25,11,07,17.20
2018,05,25,11,08,17.10
2018,05,25,11,09,17.10
2018,05,25,11,10,17.10
2018,05,25,11,11,17.00
2018,05,25,11,12,17.00
2018,05,25,11,13,16.90
2018,05,25,11,14,16.90
2018,05,25,11,15,16.90
2018,05,25,11,16,16.80
2018,05,25,11,17,16.80
2018,05,25,11,18,16.80
2018,05,25,11,19,16.80
2018,05,25,11,20,16.90
2018,05,25,11,21,16.80
2018,05,25,11,22,16.80
2018,05,25,11,23,16.70
2018,05,25,11,24,16.70
2018,05,25,11,25,16.70
2018,05,25,11,26,16.60
2018,05,25,11,27,16.60
2018,05,25,11,28,16.60
2018,05,25,11,29,16.60
2018,05,25,11,30,16.50
2018,05,25,11,31,16.50
2018,05,25,11,32,16.40
2018,05,25,11,33,16.40
2018,05,25,11,34,16.40
2018,05,25,11,35,16.30
2018,05,25,11,36,16.30
2018,05,25,11,37,16.30
2018,05,25,11,38,16.20
2018,05,25,11,39,16.20
2018,05,25,11,40,16.20
2018,05,25,11,41,16.20
2018,05,25,11,42,16.30
2018,05,25,11,43,16.30
2018,05,25,11,44,16.30
2018,05,25,11,45,16.30
2018,05,25,11,46,16.30
2018,05,25,11,47,16.30
2018,05,25,11,48,16.40
2018,05,25,11,49,16.40
2018,05,25,11,50,16.40
2018,05,25,11,51,16.40
2018,05,25,11,52,16.40
2018,05,25,11,53,16.40
2018,05,25,11,54,16.40
2018,05,25,11,55,16.40
2018,05,25,11,56,16.40
2018,05,25,11,57,16.50
2018,05,25,11,58,16.50
2018,05,25,11,59,16.60
2018,05,25,12,00,16.60
2018,05,25,12,01,16.60
2018,05,25,12,02,16.60
2018,05,25,12,03,16.60
2018,05,25,12,04,16.60
2018,05,25,12,05,16.60
2018,05,25,12,06,16.70
2018,05,25,12,07,16.70
2018,05,25,12,08,16.70
2018,05,25,12,09,16.70
2018,05,25,12,10,16.60
2018,05,25,12,11,16.60
2018,05,25,12,12,16.60
2018,05,25,12,13,16.60
2018,05,25,12,14,16.60
2018,05,25,12,15,16.70
2018,05,25,12,16,16.70
2018,05,25,12,17,16.70
2018,05,25,12,18,16.70
2018,05,25,12,19,16.70
2018,05,25,12,20,16.70
2018,05,25,12,21,16.80
2018,05,25,12,22,16.80
2018,05,25,12,23,16.80
2018,05,25,12,24,16.90
2018,05,25,12,25,16.90
2018,05,25,12,26,16.90
2018,05,25,12,27,16.90
2018,05,25,12,28,17.00
2018,05,25,12,29,17.00
2018,05,25,12,30,17.10
2018,05,25,12,31,17.10
2018,05,25,12,32,17.10
2018,05,25,12,33,17.20
2018,05,25,12,34,17.20
2018,05,25,12,35,17.20
2018,05,25,12,36,17.30
2018,05,25,12,37,17.40
2018,05,25,12,38,17.50
2018,05,25,12,39,17.60
2018,05,25,12,40,17.70
2018,05,25,12,41,17.70
2018,05,25,12,42,17.60
2018,05,25,12,43,17.60
2018,05,25,12,44,17.60
2018,05,25,12,45,17.60
2018,05,25,12,46,17.60
2018,05,25,12,47,17.60
2018,05,25,12,48,17.70
2018,05,25,12,49,17.70
2018,05,25,12,50,17.80
2018,05,25,12,51,17.90
2018,05,25,12,52,18.00
2018,05,25,12,53,18.10
2018,05,25,12,54,18.10
2018,05,25,12,55,18.10
2018,05,25,12,56,18.10
2018,05,25,12,57,18.10
2018,05,25,12,58,18.10
2018,05,25,12,59,18.10
2018,05,25,13,00,18.10
2018,05,25,13,01,18.10
2018,05,25,13,02,18.10
2018,05,25,13,03,18.20
2018,05,25,13,04,18.20
2018,05,25,13,05,18.20
2018,05,25,13,06,18.20
2018,05,25,13,07,18.10
2018,05,25,13,08,18.10
2018,05,25,13,09,18.10
2018,05,25,13,10,18.00
2018,05,25,13,11,17.90
2018,05,25,13,12,17.80
2018,05,25,13,13,17.70
2018,05,25,13,14,17.70
2018,05,25,13,15,17.60
2018,05,25,13,16,17.60
2018,05,25,13,17,17.60
2018,05,25,13,18,17.60
2018,05,25,13,19,17.70
2018,05,25,13,20,17.80
2018,05,25,13,21,17.80
2018,05,25,13,22,17.90
2018,05,25,13,23,17.90
2018,05,25,13,24,17.90
2018,05,25,13,25,17.90
2018,05,25,13,26,17.80
2018,05,25,13,27,17.80
2018,05,25,13,28,17.70
2018,05,25,13,29,17.70
2018,05,25,13,30,17.80
2018,05,25,13,31,17.80
2018,05,25,13,32,17.80
2018,05,25,13,33,17.90
2018,05,25,13,34,17.90
2018,05,25,13,35,17.80
2018,05,25,13,36,17.80
2018,05,25,13,37,17.80
2018,05,25,13,38,17.80
2018,05,25,13,39,17.80
2018,05,25,13,40,17.80
2018,05,25,13,41,17.80
2018,05,25,13,42,17.80
2018,05,25,13,43,17.90
2018,05,25,13,44,17.90
2018,05,25,13,45,17.90
2018,05,25,13,46,17.80
2018,05,25,13,47,17.70
2018,05,25,13,48,17.60
2018,05,25,13,49,17.60
2018,05,25,13,50,17.40
2018,05,25,13,51,17.30
2018,05,25,13,52,17.30
2018,05,25,13,53,17.20
2018,05,25,13,54,17.20
2018,05,25,13,55,17.20
2018,05,25,13,56,17.20
2018,05,25,13,57,17.30
2018,05,25,13,58,17.30
2018,05,25,13,59,17.40
2018,05,25,14,00,17.40
2018,05,25,14,01,17.50
2018,05,25,14,02,17.60
2018,05,25,14,03,17.70
2018,05,25,14,04,17.80
2018,05,25,14,05,17.80
2018,05,25,14,06,17.90
2018,05,25,14,07,18.00
2018,05,25,14,08,18.10
2018,05,25,14,09,18.10
2018,05,25,14,10,18.00
2018,05,25,14,11,17.90
2018,05,25,14,12,17.90
2018,05,25,14,13,18.00
2018,05,25,14,14,18.10
2018,05,25,14,15,18.10
2018,05,25,14,16,18.10
2018,05,25,14,17,18.10
2018,05,25,14,18,18.10
2018,05,25,14,19,18.10
2018,05,25,14,20,18.10
2018,05,25,14,21,18.20
2018,05,25,14,22,18.10
2018,05,25,14,23,18.10
2018,05,25,14,24,18.10
2018,05,25,14,25,18.10
2018,05,25,14,26,18.10
2018,05,25,14,27,18.00
2018,05,25,14,28,18.00
2018,05,25,14,29,18.00
2018,05,25,14,30,18.10
2018,05,25,14,31,18.10
2018,05,25,14,32,18.20
2018,05,25,14,33,18.20
2018,05,25,14,34,18.20
2018,05,25,14,35,18.20
2018,05,25,14,36,18.30
2018,05,25,14,37,18.30
2018,05,25,14,38,18.30
2018,05,25,14,39,18.20
2018,05,25,14,40,18.20
2018,05,25,14,41,18.20
2018,05,25,14,42,18.20
2018,05,25,14,43,18.20
2018,05,25,14,44,18.20
2018,05,25,14,45,18.20
2018,05,25,14,46,18.10
2018,05,25,14,47,18.00
2018,05,25,14,48,17.90
2018,05,25,14,49,17.80
2018,05,25,14,50,17.80
2018,05,25,14,51,17.80
2018,05,25,14,52,17.80
2018,05,25,14,53,17.80
2018,05,25,14,54,17.80
2018,05,25,14,55,17.70
2018,05,25,14,56,17.70
2018,05,25,14,57,17.60
2018,05,25,14,58,17.60
2018,05,25,14,59,17.70
2018,05,25,15,00,17.70
2018,05,25,15,01,17.70
2018,05,25,15,02,17.60
2018,05,25,15,03,17.60
2018,05,25,15,04,17.50
2018,05,25,15,05,17.50
2018,05,25,15,06,17.40
2018,05,25,15,07,17.50
2018,05,25,15,08,17.50
2018,05,25,15,09,17.60
2018,05,25,15,10,17.60
2018,05,25,15,11,17.60
2018,05,25,15,12,17.70
2018,05,25,15,13,17.70
2018,05,25,15,14,17.90
2018,05,25,15,15,18.00
2018,05,25,15,16,18.10
2018,05,25,15,17,18.20
2018,05,25,15,18,18.30
2018,05,25,15,19,18.30
2018,05,25,15,20,18.30
2018,05,25,15,21,18.40
2018,05,25,15,22,18.40
2018,05,25,15,23,18.50
2018,05,25,15,24,18.50
2018,05,25,15,25,18.50
2018,05,25,15,26,18.50
2018,05,25,15,27,18.50
2018,05,25,15,28,18.50
2018,05,25,15,29,18.40
2018,05,25,15,30,18.30
2018,05,25,15,31,18.20
2018,05,25,15,32,18.10
2018,05,25,15,33,18.00
2018,05,25,15,34,18.00
2018,05,25,15,35,17.90
2018,05,25,15,36,17.80
2018,05,25,15,37,17.80
2018,05,25,15,38,17.70
2018,05,25,15,39,17.70
2018,05,25,15,40,17.70
2018,05,25,15,41,17.70
2018,05,25,15,42,17.70
2018,05,25,15,43,17.70
2018,05,25,15,44,17.70
2018,05,25,15,45,17.60
2018,05,25,15,46,17.60
2018,05,25,15,47,17.60
2018,05,25,15,48,17.60
2018,05,25,15,49,17.50
2018,05,25,15,50,17.40
2018,05,25,15,51,17.40
2018,05,25,15,52,17.30
2018,05,25,15,53,17.30
2018,05,25,15,54,17.30
2018,05,25,15,55,17.30
2018,05,25,15,56,17.30
2018,05,25,15,57,17.30
2018,05,25,15,58,17.30
2018,05,25,15,59,17.30
2018,05,25,16,00,17.40
2018,05,25,16,01,17.30
2018,05,25,16,02,17.30
2018,05,25,16,03,17.30
2018,05,25,16,04,17.20
2018,05,25,16,05,17.20
2018,05,25,16,06,17.20
2018,05,25,16,07,17.10
2018,05,25,16,08,17.20
2018,05,25,16,09,17.10
2018,05,25,16,10,17.10
2018,05,25,16,11,17.10
2018,05,25,16,12,17.10
2018,05,25,16,13,17.10
2018,05,25,16,14,17.10
2018,05,25,16,15,17.10
2018,05,25,16,16,17.10
2018,05,25,16,17,17.10
2018,05,25,16,18,17.10
2018,05,25,16,19,17.10
2018,05,25,16,20,17.10
2018,05,25,16,21,17.10
2018,05,25,16,22,17.10
2018,05,25,16,23,17.10
2018,05,25,16,24,17.10
2018,05,25,16,25,17.10
2018,05,25,16,26,17.20
2018,05,25,16,27,17.20
2018,05,25,16,28,17.20
2018,05,25,16,29,17.30
2018,05,25,16,30,17.40
2018,05,25,16,31,17.60
2018,05,25,16,32,17.70
2018,05,25,16,33,17.80
2018,05,25,16,34,18.00
2018,05,25,16,35,18.20
2018,05,25,16,36,18.30
2018,05,25,16,37,18.50
2018,05,25,16,38,18.60
2018,05,25,16,39,18.60
2018,05,25,16,40,18.70
2018,05,25,16,41,18.70
2018,05,25,16,42,18.80
2018,05,25,16,43,18.90
2018,05,25,16,44,19.00
2018,05,25,16,45,19.10
2018,05,25,16,46,19.10
2018,05,25,16,47,19.10
2018,05,25,16,48,19.10
2018,05,25,16,49,19.10
2018,05,25,16,50,19.10
2018,05,25,16,51,19.10
2018,05,25,16,52,19.00
2018,05,25,16,53,19.00
2018,05,25,16,54,19.00
2018,05,25,16,55,18.90
2018,05,25,16,56,18.80
2018,05,25,16,57,18.80
2018,05,25,16,58,18.80
2018,05,25,16,59,18.80
2018,05,25,17,00,18.90
2018,05,25,17,01,19.00
2018,05,25,17,02,19.10
2018,05,25,17,03,19.10
2018,05,25,17,04,19.10
2018,05,25,17,05,19.00
2018,05,25,17,06,18.90
2018,05,25,17,07,18.80
2018,05,25,17,08,18.70
2018,05,25,17,09,18.70
2018,05,25,17,10,18.70
2018,05,25,17,11,18.60
2018,05,25,17,12,18.50
2018,05,25,17,13,18.50
2018,05,25,17,14,18.50
2018,05,25,17,15,18.40
2018,05,25,17,16,18.40
2018,05,25,17,17,18.40
2018,05,25,17,18,18.30
2018,05,25,17,19,18.40